Home   Weather   Red Deer   Past weeks

Flag for Canada Past Weather in Red Deer, Alberta, Canada — Yesterday and Last 2 Weeks

Now
-9 °F

Passing clouds.


Feels Like: -24 °F
Forecast: -13 / -4 °F
Wind: 7 mph from West

Location: Red Deer

Current Time: Dec 7, 2016 at 1:39:53 am

Latest Report: Dec 7, 2016 at 1:00 am


Visibility: 15 mi

Pressure: 30.71 "Hg (27.31 "Hg at 857m altitude)

Humidity: 70%

Dew Point: -17 °F

Location of Red DeerLocation

Past Weather in Red Deer — Graph

°F

Red Deer Temperature Yesterday

Maximum temperature yesterday: -4 °F (at 12:00 am)
Minimum temperature yesterday: -8 °F (at 4:00 am)
Average temperature yesterday: -5 °F

High & Low Weather Summary for the Past Weeks

 TemperatureHumidityPressure
High45 °F (Nov 25, 1:00 pm)100% (Nov 22, 12:00 am)30.68 "Hg (Nov 22, 12:00 am)
Low-8 °F (Dec 6, 4:00 am)42% (Nov 25, 3:00 pm)29.46 "Hg (Nov 27, 3:00 pm)
Average20 °F85%29.96 "Hg
* Reported Nov 22 12:00 am — Dec 7 12:00 am, Red Deer, Weather by CustomWeather, © 2016

Note: Actual official high and low records may vary slightly from our data, if they occured in-between our weather recording intervals... More about our weather records

Advertising

Red Deer Weather History for the Previous 24 Hours

Scroll right to see more
 ConditionsComfort  
Time TempWeatherWind HumidityBarometerVisibility
12:00 am
Wed, Dec 7
-8 °FPassing clouds.10 mph70%30.68 "Hg15 mi
11:00 pm
Tue, Dec 6
-6 °FSnow flurries. Passing clouds.12 mph70%30.67 "Hg15 mi
10:00 pm-6 °FLight snow. Passing clouds.9 mph70%30.66 "Hg15 mi
9:00 pm-4 °FLight snow. Overcast.13 mph71%30.64 "Hg10 mi
8:00 pm-4 °FSnow flurries. Overcast.13 mph71%30.64 "Hg12 mi
7:00 pm-4 °FSnow flurries. Overcast.14 mph71%30.63 "Hg10 mi
5:00 pm-4 °FMostly cloudy.15 mph71%30.60 "Hg15 mi
4:00 pm-4 °FOvercast.10 mph71%30.57 "Hg10 mi
3:00 pm-4 °FOvercast.13 mph71%30.55 "Hg10 mi
2:00 pm-4 °FFrigid.8 mph71%30.53 "HgN/A
12:00 pm-4 °FFrigid.8 mph71%30.54 "HgN/A
10:00 am-4 °FOvercast.14 mph65%30.54 "Hg10 mi
9:00 am-4 °FPartly sunny.14 mph84%30.53 "Hg10 mi
8:00 am-4 °FLight snow. Passing clouds.9 mph65%30.52 "Hg10 mi
7:00 am-6 °FLight snow. Partly cloudy.6 mph64%30.53 "Hg12 mi
6:00 am-8 °FSnow flurries. Passing clouds.5 mph64%30.52 "Hg12 mi
5:00 am-8 °FSnow flurries. Low level haze.13 mph70%30.51 "Hg12 mi
4:00 am-8 °FSnow flurries. Low level haze.12 mph70%30.50 "Hg12 mi
3:00 am-6 °FSnow flurries. Low level haze.13 mph70%30.50 "Hg12 mi
2:00 am-6 °FLight snow. Passing clouds.13 mph70%30.48 "Hg15 mi
1:48 am-6 °FLight snow. Passing clouds.13 mph70%30.48 "Hg15 mi
1:00 am-4 °FOvercast.12 mph65%30.48 "Hg15 mi
Weather by CustomWeather, © 2016

See weather overviewHow to use our weather pages